Time,TemperatureF,DewpointF,PressureIn,WindDirection,WindDirectionDegrees,WindSpeedMPH,WindSpeedGustMPH,Humidity,HourlyPrecipIn,Conditions,Clouds,dailyrainin,SoftwareType,DateUTC
2013-11-10 00:13:00,-999.0,-99.9,-100.00,WSW,250,12.0,19.0,-999,-99.99,,,-99.99,,2013-11-10 05:13:00,
2013-11-10 00:54:00,-999.0,-99.9,-100.00,West,268,17.0,21.0,-999,-99.99,,,-99.99,,2013-11-10 05:54:00,
2013-11-10 02:22:00,-999.0,-99.9,-100.00,WNW,284,15.0,23.0,-999,-99.99,,,-99.99,,2013-11-10 07:22:00,
2013-11-10 02:43:00,-999.0,-99.9,-100.00,West,277,13.0,21.0,-999,-99.99,,,-99.99,,2013-11-10 07:43:00,
2013-11-10 03:12:00,-999.0,-99.9,-100.00,West,272,16.0,26.0,-999,-99.99,,,-99.99,,2013-11-10 08:12:00,
2013-11-10 03:22:00,-999.0,-99.9,-100.00,West,278,17.0,24.0,-999,-99.99,,,-99.99,,2013-11-10 08:22:00,
2013-11-10 03:32:00,-999.0,-99.9,-100.00,WNW,286,13.0,20.0,-999,-99.99,,,-99.99,,2013-11-10 08:32:00,
2013-11-10 04:22:00,-999.0,-99.9,-100.00,WNW,285,16.0,23.0,-999,-99.99,,,-99.99,,2013-11-10 09:22:00,
2013-11-10 04:33:00,-999.0,-99.9,-100.00,WNW,283,16.0,23.0,-999,-99.99,,,-99.99,,2013-11-10 09:33:00,
2013-11-10 04:43:00,-999.0,-99.9,-100.00,WNW,299,18.0,23.0,-999,-99.99,,,-99.99,,2013-11-10 09:43:00,
2013-11-10 05:03:00,-999.0,-99.9,-100.00,WNW,301,14.0,22.0,-999,-99.99,,,-99.99,,2013-11-10 10:03:00,
2013-11-10 06:33:00,-999.0,-99.9,-100.00,NW,307,15.0,21.0,-999,-99.99,,,-99.99,,2013-11-10 11:33:00,
2013-11-10 07:02:00,-999.0,-99.9,-100.00,NW,322,17.0,23.0,-999,-99.99,,,-99.99,,2013-11-10 12:02:00,
2013-11-10 07:22:00,36.0,-99.9,29.80,North,-999,-999.0,-999.0,-999,-99.99,,,-99.99,,2013-11-10 12:22:00,
2013-11-10 07:42:00,-999.0,-99.9,-100.00,NW,320,20.0,27.0,-999,-99.99,,,-99.99,,2013-11-10 12:42:00,
2013-11-10 07:52:00,-999.0,-99.9,-100.00,NW,314,21.0,30.0,-999,-99.99,,,-99.99,,2013-11-10 12:52:00,
2013-11-10 09:11:00,-999.0,-99.9,-100.00,NW,316,17.0,27.0,-999,-99.99,,,-99.99,,2013-11-10 14:11:00,
2013-11-10 09:22:00,-999.0,-99.9,-100.00,NW,324,19.0,27.0,-999,-99.99,,,-99.99,,2013-11-10 14:22:00,
2013-11-10 10:02:00,-999.0,-99.9,-100.00,NW,319,17.0,31.0,-999,-99.99,,,-99.99,,2013-11-10 15:02:00,
2013-11-10 10:54:00,-999.0,-99.9,-100.00,NNW,329,24.0,30.0,-999,-99.99,,,-99.99,,2013-11-10 15:54:00,
2013-11-10 11:33:00,-999.0,-99.9,-100.00,NW,314,22.0,29.0,-999,-99.99,,,-99.99,,2013-11-10 16:33:00,
2013-11-10 12:03:00,-999.0,-99.9,-100.00,NNW,337,20.0,24.0,-999,-99.99,,,-99.99,,2013-11-10 17:03:00,
2013-11-10 12:12:00,-999.0,-99.9,-100.00,NNW,332,17.0,21.0,-999,-99.99,,,-99.99,,2013-11-10 17:12:00,
2013-11-10 12:53:00,-999.0,-99.9,-100.00,NW,307,21.0,32.0,-999,-99.99,,,-99.99,,2013-11-10 17:53:00,
2013-11-10 13:03:00,-999.0,-99.9,-100.00,NW,317,23.0,32.0,-999,-99.99,,,-99.99,,2013-11-10 18:03:00,
2013-11-10 16:03:00,-999.0,-99.9,-100.00,WNW,287,18.0,28.0,-999,-99.99,,,-99.99,,2013-11-10 21:03:00,
2013-11-10 16:12:00,-999.0,-99.9,-100.00,WNW,289,14.0,20.0,-999,-99.99,,,-99.99,,2013-11-10 21:12:00,
2013-11-10 16:22:00,-999.0,-99.9,-100.00,WNW,292,13.0,17.0,-999,-99.99,,,-99.99,,2013-11-10 21:22:00,
2013-11-10 16:33:00,-999.0,-99.9,-100.00,WNW,298,11.0,20.0,-999,-99.99,,,-99.99,,2013-11-10 21:33:00,
2013-11-10 16:55:00,-999.0,-99.9,-100.00,West,274,9.0,11.0,-999,-99.99,,,-99.99,,2013-11-10 21:55:00,
2013-11-10 17:24:00,-999.0,-99.9,-100.00,WNW,283,10.0,16.0,-999,-99.99,,,-99.99,,2013-11-10 22:24:00,
2013-11-10 17:34:00,-999.0,-99.9,-100.00,West,278,11.0,15.0,-999,-99.99,,,-99.99,,2013-11-10 22:34:00,
2013-11-10 17:54:00,-999.0,-99.9,-100.00,West,272,12.0,16.0,-999,-99.99,,,-99.99,,2013-11-10 22:54:00,
2013-11-10 18:03:00,-999.0,-99.9,-100.00,West,278,10.0,20.0,-999,-99.99,,,-99.99,,2013-11-10 23:03:00,
2013-11-10 18:22:00,-999.0,-99.9,-100.00,West,271,6.0,11.0,-999,-99.99,,,-99.99,,2013-11-10 23:22:00,
2013-11-10 18:53:00,-999.0,-99.9,-100.00,WSW,258,6.0,10.0,-999,-99.99,,,-99.99,,2013-11-10 23:53:00,
2013-11-10 19:03:00,-999.0,-99.9,-100.00,WNW,294,9.0,12.0,-999,-99.99,,,-99.99,,2013-11-11 00:03:00,
2013-11-10 19:22:00,-999.0,-99.9,-100.00,West,273,6.0,10.0,-999,-99.99,,,-99.99,,2013-11-11 00:22:00,
2013-11-10 19:42:00,-999.0,-99.9,-100.00,WSW,246,6.0,8.0,-999,-99.99,,,-99.99,,2013-11-11 00:42:00,
2013-11-10 20:02:00,-999.0,-99.9,-100.00,WSW,246,5.0,7.0,-999,-99.99,,,-99.99,,2013-11-11 01:02:00,
2013-11-10 20:11:00,-999.0,-99.9,-100.00,WSW,245,5.0,8.0,-999,-99.99,,,-99.99,,2013-11-11 01:11:00,
2013-11-10 20:32:00,-999.0,-99.9,-100.00,WSW,248,5.0,8.0,-999,-99.99,,,-99.99,,2013-11-11 01:32:00,
2013-11-10 20:52:00,-999.0,-99.9,-100.00,West,260,7.0,11.0,-999,-99.99,,,-99.99,,2013-11-11 01:52:00,
2013-11-10 21:02:00,-999.0,-99.9,-100.00,West,266,6.0,10.0,-999,-99.99,,,-99.99,,2013-11-11 02:02:00,
2013-11-10 21:11:00,-999.0,-99.9,-100.00,WSW,245,5.0,8.0,-999,-99.99,,,-99.99,,2013-11-11 02:11:00,
2013-11-10 21:32:00,-999.0,-99.9,-100.00,WSW,240,3.0,4.0,-999,-99.99,,,-99.99,,2013-11-11 02:32:00,
2013-11-10 21:52:00,-999.0,-99.9,-100.00,SW,225,3.0,6.0,-999,-99.99,,,-99.99,,2013-11-11 02:52:00,
2013-11-10 22:02:00,-999.0,-99.9,-100.00,SW,229,3.0,5.0,-999,-99.99,,,-99.99,,2013-11-11 03:02:00,
2013-11-10 22:22:00,-999.0,-99.9,-100.00,South,175,6.0,7.0,-999,-99.99,,,-99.99,,2013-11-11 03:22:00,
2013-11-10 22:34:00,-999.0,-99.9,-100.00,South,173,6.0,7.0,-999,-99.99,,,-99.99,,2013-11-11 03:34:00,